Regional Weather Roundup
Issued by NWS

Home | Current Version | Previous Version | Graphics & Text | Print | Product List | Glossary Off
Versions: 1 2 3 4 5 6 7 8 9 10 11 12 13 14 15 16 17 18 19 20 21 22 23 24 25 26 27 28 29 30 31 32 33 34 35 36 37 38 39 40 41 42 43 44 45 46 47 48 49 50

000
ASUS43 KDTX 250410
RWRMI
MICHIGAN HOURLY REGIONAL WEATHER ROUNDUP
NATIONAL WEATHER SERVICE DETROIT/PONTIAC MI
1200 AM EDT WED MAY 25 2016

NOTE: "FAIR" INDICATES FEW OR NO CLOUDS BELOW 12,000 FEET WITH NO
SIGNIFICANT WEATHER AND/OR OBSTRUCTION TO VISIBILITY.

MIZ047>049-052>055-059>063-066>070-074>076-081>083-250500-
SOUTHEAST LOWER MICHIGAN

CITY           SKY/WX    TMP DP  RH WIND       PRES   REMARKS
ADRIAN         CLEAR     69  46  43 SW5       30.04R
ALMA           CLOUDY    69  54  57 W8        29.99S
ANN ARBOR      CLEAR     58  53  84 CALM      30.03R
BAD AXE        CLOUDY    62  52  70 CALM      29.99S
CARO           PTCLDY    59  54  83 CALM      29.98S
DETROIT CITY   CLEAR     70  50  49 SW6       30.02R
DETROIT        MOCLDY    68  51  54 S7        30.03R
FLINT          CLEAR     71  51  49 S7        30.00S
GROSSE ILE     CLEAR     72  50  46 SW8       30.01S
HILLSDALE      CLEAR     68  43  40 S5        30.04S
HOWELL         CLEAR     69  49  48 SW5       30.02S

CITY           SKY/WX    TMP DP  RH WIND       PRES   REMARKS
JACKSON        CLEAR     62  52  69 CALM      30.03S
LAMBERTVILLE   CLEAR     69  45  41 SW5       30.04S
LANSING        CLEAR     69  51  52 CALM      30.01S
LAPEER         FAIR      60  53  77 CALM      30.00F
MASON          CLEAR     69  50  50 SE6       30.01S
MONROE         CLEAR     68  48  49 SW5       30.02S
PONTIAC        PTCLDY    71  51  49 SW5       30.01S
PORT HOPE        N/A     63  51  65 NW6       29.98R
PORT HURON     CLEAR     63  50  63 CALM      30.01R
TRI CITIES     CLOUDY    72  52  49 SW5       29.99S
MIDLAND        CLOUDY    70  54  55 W9        30.01R
TROY           CLEAR     74  49  41 SW6       30.03S
SAGINAW HB     CLOUDY    68  52  56 SW3       29.98S
$$
MIZ043>046-050>051-056>058-064>065-071>073-077>080-250500-
SOUTHWEST LOWER MICHIGAN

CITY           SKY/WX    TMP DP  RH WIND       PRES   REMARKS
BATTLE CREEK   CLEAR     67  50  54 S8        30.02S
BENTON HARBOR  PTCLDY    74  52  46 S6        29.99R
BIG RAPIDS     LGT RAIN  63  61  92 CALM      29.98S
COLDWATER      CLEAR     72  46  39 S5        30.03R
FREMONT        MOCLDY    66  54  64 CALM      29.98S
HOLLAND        CLOUDY    69  53  56 S7        29.99R
GRAND RAPIDS   MOCLDY    70  54  56 S7        29.99R
IONIA          CLOUDY    70  52  52 S5        29.99S
KALAMAZOO      PTCLDY    69  50  50 S6        30.01F
LUDINGTON      CLOUDY    59  56  89 CALM      29.97S
MARSHALL       CLEAR     68  52  56 CALM      30.02S
MOUNT PLEASANT CLOUDY    64  60  88 CALM      29.98F
MUSKEGON       MOCLDY    69  50  50 CALM      29.99R
SOUTH HAVEN    PTCLDY    73  51  45 S7        29.99R
$$
MIZ016>042-250500-
NORTHERN LOWER MICHIGAN

CITY           SKY/WX    TMP DP  RH WIND       PRES   REMARKS
ALPENA         CLOUDY    65  51  60 W6        29.98R
BEAVER ISLAND  FOG       51  50  99 CALM      29.97R VSB 1/2
BELLAIRE         N/A     55  53  95 CALM      29.97S FOG
CADILLAC       MOCLDY    65  55  69 CALM      29.99S
CHARLEVOIX     CLEAR     56  55  99 SE5       29.99S FOG
FRANKFORT      CLEAR     60  55  82 CALM      29.95F
GAYLORD        MOCLDY    60  57  89 CALM      29.98F FOG
GRAYLING       MOCLDY    64  52  65 CALM      30.00S
HARBOR SPRINGS CLEAR     55  54  97 CALM      29.97S FOG
HOUGHTON LAKE  CLOUDY    68  49  50 SW5       29.99S
MANISTEE       CLEAR     63  52  67 CALM      29.97S
OSCODA         CLOUDY    66  50  56 N3        29.97S
PELLSTON       CLEAR     56  55  97 CALM      29.97R FOG
ROGERS CITY    CLOUDY    60  56  87 SW3       29.97F
TRAVERSE CITY  CLEAR     60  51  72 CALM      29.96F
$$
MIZ007>008-015-250500-
EASTERN UPPER MICHIGAN

CITY           SKY/WX    TMP DP  RH WIND       PRES   REMARKS
KINROSS          N/A     57  57 100 CALM      29.97R
MACKINAC ISLAN PTCLDY    55  55 100 S6        29.96S FOG
NEWBERRY       CLOUDY    57  56  97 CALM      29.97S FOG
S. S. MARIE    FOG       55  53  93 CALM      29.97S VSB 3/4
MUNISING         N/A     47  46  97 N10       30.01R
$$
MIZ004>006-011>014-085-250500-
CENTRAL UPPER MICHIGAN

CITY           SKY/WX    TMP DP  RH WIND       PRES   REMARKS
MANISTIQUE     CLOUDY    55  54  97 CALM      29.98R FOG
ESCANABA       CLOUDY    57  55  94 CALM      29.97R
MENOMINEE      PTCLDY    57  57 100 N5        29.96S
SAWYER-GWINN   SNOW      47  46  96 NE14      30.01R VSB 1/4
$$
MIZ001>003-009>011-084-250500-
WESTERN UPPER MICHIGAN

CITY           SKY/WX    TMP DP  RH WIND       PRES   REMARKS
IRON MOUNTAIN  MOCLDY    60  59  96 CALM      29.97R FOG
HOUGHTON       CLOUDY    52  50  93 E8        30.03R
COPPER HARBOR    N/A     49  48  97 VRB3      30.04R
IRONWOOD       CLEAR     52  52 100 CALM      29.98S
$$

ABBREVIATIONS USED IN REMARKS
   TC - TEMPERATURE IN CELSIUS
  WCI - WIND CHILL INDEX
   HX - HEAT INDEX
  VSB - VISIBILITY





USA.gov is the U.S. government's official web portal to all federal, state and local government web resources and services.